Retour au catalogue

COSMOS 531

ActifMilitaireLEO
NORAD 6266·PAYLOAD·🇷🇺 Russia

Lancé Nov 1, 1972 depuis Plesetsk Cosmodrome

Loading…

Prochains Passages (prochaines 24 heures)

TLE

FraisSource: Space-Track

Époque: Sep 14, 2026, 05:55 UTC

1 06266U 72087D   26257.24668850 -.00000002  00000-0  85496-4 0  9994
2 06266  74.0393 355.9442 0030594 148.9977 238.9652 12.54806087467447

Suivez COSMOS 531 en temps réel avec AllMySat

Download on the App Store